| time (UTC) | temp C | wind direction | speed KPH | gust KPH | rain 1hr cm | rain 24hr cm | rain mn cm | humidity % | barometer mb |
| 20260507090927 | 13 | 293 | 3.2 | 6.4 | 0.00 | 0.13 | 0.13 | 69 | |
| 20260507090427 | 13 | 180 | 0.0 | 9.7 | 0.00 | 0.13 | 0.13 | 69 | |
| 20260507085927 | 13 | 209 | 1.6 | 8.0 | 0.00 | 0.13 | 0.13 | 70 | |
| 20260507085427 | 13 | 272 | 3.2 | 6.4 | 0.00 | 0.13 | 0.13 | 70 | |
| 20260507084927 | 13 | 222 | 1.6 | 4.8 | 0.00 | 0.13 | 0.13 | 70 | |
| 20260507084427 | 13 | 217 | 0.0 | 8.0 | 0.00 | 0.13 | 0.13 | 70 | |
| 20260507083927 | 13 | 272 | 0.0 | 11.3 | 0.00 | 0.13 | 0.13 | 70 | |
| 20260507083427 | 13 | 267 | 3.2 | 6.4 | 0.00 | 0.13 | 0.13 | 70 | |
| 20260507082927 | 12 | 39 | 1.6 | 4.8 | 0.00 | 0.13 | 0.13 | 70 | |
| 20260507082427 | 12 | 9 | 0.0 | 6.4 | 0.00 | 0.13 | 0.13 | 70 | |
| 20260507081927 | 12 | 202 | 0.0 | 8.0 | 0.00 | 0.13 | 0.13 | 71 | |
| 20260507081427 | 12 | 279 | 0.0 | 6.4 | 0.00 | 0.13 | 0.13 | 71 | |
| 20260507080927 | 12 | 331 | 1.6 | 8.0 | 0.00 | 0.13 | 0.13 | 71 | |
| 20260507080427 | 12 | 32 | 1.6 | 3.2 | 0.00 | 0.13 | 0.13 | 71 | |
| 20260507075927 | 12 | 250 | 0.0 | 8.0 | 0.00 | 0.13 | 0.13 | 71 | |
| 20260507075427 | 12 | 8 | 0.0 | 8.0 | 0.00 | 0.13 | 0.13 | 71 | |
| 20260507074427 | 12 | 293 | 1.6 | 9.7 | 0.00 | 0.13 | 0.13 | 72 | |
| 20260507073927 | 12 | 291 | 3.2 | 9.7 | 0.00 | 0.13 | 0.13 | 72 | |
| 20260507073427 | 12 | 354 | 0.0 | 8.0 | 0.00 | 0.13 | 0.13 | 73 | |
| 20260507072927 | 12 | 313 | 4.8 | 9.7 | 0.00 | 0.13 | 0.13 | 74 | |
| 20260507072427 | 12 | 11 | 3.2 | 9.7 | 0.00 | 0.13 | 0.13 | 75 | |
| 20260507071927 | 11 | 310 | 0.0 | 4.8 | 0.00 | 0.13 | 0.13 | 75 | |
| 20260507071427 | 11 | 313 | 3.2 | 11.3 | 0.00 | 0.13 | 0.13 | 75 | |
| 20260507070927 | 11 | 54 | 1.6 | 8.0 | 0.00 | 0.13 | 0.13 | 76 | |
| 20260507070427 | 11 | 324 | 3.2 | 6.4 | 0.00 | 0.13 | 0.13 | 76 | |
| 20260507065927 | 11 | 4 | 0.0 | 6.4 | 0.00 | 0.13 | 0.13 | 76 | |
| 20260507065427 | 11 | 281 | 0.0 | 6.4 | 0.00 | 0.13 | 0.13 | 75 | |
| 20260507064927 | 11 | 33 | 0.0 | 3.2 | 0.00 | 0.13 | 0.13 | 75 | |
| 20260507064427 | 11 | 293 | 1.6 | 8.0 | 0.00 | 0.13 | 0.13 | 75 | |
| 20260507063927 | 11 | 309 | 3.2 | 4.8 | 0.00 | 0.13 | 0.13 | 75 | |
| 20260507063427 | 11 | 15 | 1.6 | 6.4 | 0.00 | 0.13 | 0.13 | 76 | |
| 20260507062927 | 11 | 253 | 0.0 | 3.2 | 0.00 | 0.13 | 0.13 | 76 | |
| 20260507062427 | 11 | 45 | 1.6 | 4.8 | 0.00 | 0.13 | 0.13 | 76 | |
| 20260507061927 | 11 | 357 | 1.6 | 4.8 | 0.00 | 0.13 | 0.13 | 75 | |
| 20260507061427 | 11 | 12 | 0.0 | 6.4 | 0.00 | 0.13 | 0.13 | 75 | |
| 20260507060927 | 11 | 35 | 3.2 | 4.8 | 0.00 | 0.13 | 0.13 | 76 | |
| 20260507060427 | 11 | 50 | 3.2 | 6.4 | 0.00 | 0.13 | 0.13 | 76 | |
| 20260507055927 | 11 | 288 | 3.2 | 3.2 | 0.00 | 0.13 | 0.13 | 77 | |
| 20260507055427 | 11 | 298 | 0.0 | 4.8 | 0.00 | 0.13 | 0.13 | 77 | |
| 20260507054927 | 11 | 316 | 0.0 | 3.2 | 0.00 | 0.13 | 0.13 | 77 | |
| 20260507054427 | 11 | 5 | 1.6 | 6.4 | 0.00 | 0.13 | 0.13 | 77 | |
| 20260507053927 | 11 | 18 | 1.6 | 6.4 | 0.00 | 0.13 | 0.13 | 77 | |
| 20260507053427 | 11 | 343 | 1.6 | 4.8 | 0.00 | 0.13 | 0.13 | 77 | |
| 20260507052927 | 11 | 2 | 0.0 | 4.8 | 0.00 | 0.13 | 0.13 | 77 | |
| 20260507052427 | 11 | 289 | 3.2 | 6.4 | 0.00 | 0.13 | 0.13 | 77 | |
| 20260507051927 | 11 | 326 | 0.0 | 9.7 | 0.00 | 0.13 | 0.13 | 77 | |
| 20260507051427 | 11 | 337 | 4.8 | 4.8 | 0.00 | 0.13 | 0.13 | 77 | |
| 20260507050927 | 11 | 307 | 0.0 | 6.4 | 0.00 | 0.13 | 0.13 | 77 | |
| 20260507050427 | 11 | 327 | 1.6 | 9.7 | 0.00 | 0.13 | 0.13 | 77 | |
| 20260507045927 | 11 | 310 | 1.6 | 6.4 | 0.00 | 0.13 | 0.13 | 77 | |
| 20260507045427 | 11 | 278 | 6.4 | 11.3 | 0.00 | 0.13 | 0.13 | 77 | |
| 20260507044927 | 11 | 0 | 1.6 | 6.4 | 0.00 | 0.13 | 0.13 | 77 | |
| 20260507044427 | 11 | 331 | 1.6 | 9.7 | 0.00 | 0.13 | 0.13 | 77 | |
| 20260507043927 | 11 | 18 | 0.0 | 4.8 | 0.00 | 0.13 | 0.13 | 77 | |
| 20260507043427 | 11 | 12 | 1.6 | 6.4 | 0.00 | 0.13 | 0.13 | 77 | |
| 20260507042927 | 11 | 326 | 3.2 | 6.4 | 0.00 | 0.13 | 0.13 | 77 | |
| 20260507042427 | 11 | 316 | 0.0 | 4.8 | 0.00 | 0.13 | 0.13 | 77 | |
| 20260507041927 | 11 | 343 | 0.0 | 8.0 | 0.00 | 0.13 | 0.13 | 77 | |
| 20260507041427 | 11 | 267 | 0.0 | 3.2 | 0.00 | 0.13 | 0.13 | 77 | |
| 20260507040927 | 11 | 351 | 1.6 | 11.3 | 0.00 | 0.13 | 0.13 | 77 | |
| 20260507040427 | 11 | 300 | 0.0 | 4.8 | 0.00 | 0.13 | 0.13 | 78 | |
| 20260507035927 | 11 | 337 | 0.0 | 0.0 | 0.00 | 0.13 | 0.13 | 78 | |
| 20260507035427 | 11 | 337 | 0.0 | 4.8 | 0.00 | 0.13 | 0.13 | 78 | |
| 20260507034927 | 11 | 348 | 1.6 | 6.4 | 0.00 | 0.13 | 0.13 | 78 | |
| 20260507034427 | 11 | 323 | 1.6 | 3.2 | 0.00 | 0.13 | 0.13 | 78 | |
| 20260507033927 | 11 | 293 | 3.2 | 8.0 | 0.00 | 0.13 | 0.13 | 78 | |
| 20260507033427 | 11 | 330 | 3.2 | 8.0 | 0.00 | 0.13 | 0.13 | 78 | |
| 20260507032927 | 11 | 312 | 0.0 | 4.8 | 0.00 | 0.13 | 0.13 | 78 | |
| 20260507032427 | 11 | 312 | 3.2 | 4.8 | 0.00 | 0.13 | 0.13 | 78 | |
| 20260507031927 | 11 | 306 | 0.0 | 3.2 | 0.00 | 0.13 | 0.13 | 78 | |
| 20260507031427 | 11 | 319 | 0.0 | 3.2 | 0.00 | 0.13 | 0.13 | 78 | |
| 20260507030927 | 11 | 326 | 0.0 | 4.8 | 0.00 | 0.13 | 0.13 | 78 | |
| 20260507030427 | 11 | 347 | 0.0 | 4.8 | 0.00 | 0.13 | 0.13 | 78 | |
| 20260507025927 | 11 | 286 | 4.8 | 6.4 | 0.00 | 0.13 | 0.13 | 78 | |
| 20260507025427 | 11 | 344 | 0.0 | 4.8 | 0.00 | 0.13 | 0.13 | 78 | |
| 20260507024927 | 11 | 42 | 0.0 | 3.2 | 0.00 | 0.13 | 0.13 | 78 | |
| 20260507024427 | 11 | 37 | 0.0 | 3.2 | 0.00 | 0.13 | 0.13 | 78 | |
| 20260507023927 | 11 | 226 | 0.0 | 1.6 | 0.00 | 0.13 | 0.13 | 78 | |
| 20260507023427 | 11 | 29 | 1.6 | 9.7 | 0.00 | 0.13 | 0.13 | 78 | |
| 20260507022927 | 11 | 334 | 0.0 | 8.0 | 0.00 | 0.13 | 0.13 | 78 | |
| 20260507022427 | 11 | 307 | 0.0 | 3.2 | 0.00 | 0.13 | 0.13 | 78 | |
| 20260507021927 | 11 | 66 | 0.0 | 3.2 | 0.00 | 0.13 | 0.13 | 79 | |
| 20260507021428 | 11 | 67 | 0.0 | 0.0 | 0.00 | 0.13 | 0.13 | 79 | |
| 20260507020928 | 11 | 67 | 0.0 | 4.8 | 0.00 | 0.13 | 0.13 | 79 | |
| 20260507020428 | 11 | 75 | 0.0 | 4.8 | 0.00 | 0.13 | 0.13 | 79 | |
| 20260507015928 | 11 | 357 | 0.0 | 9.7 | 0.00 | 0.13 | 0.13 | 79 | |
| 20260507015428 | 11 | 350 | 0.0 | 6.4 | 0.00 | 0.13 | 0.13 | 79 | |
| 20260507014928 | 11 | 32 | 0.0 | 4.8 | 0.00 | 0.13 | 0.13 | 79 | |
| 20260507014428 | 11 | 306 | 0.0 | 6.4 | 0.00 | 0.13 | 0.13 | 79 | |
| 20260507013928 | 11 | 320 | 0.0 | 6.4 | 0.00 | 0.13 | 0.13 | 79 | |
| 20260507013428 | 11 | 253 | 1.6 | 6.4 | 0.00 | 0.13 | 0.13 | 79 | |
| 20260507012928 | 11 | 281 | 1.6 | 8.0 | 0.00 | 0.13 | 0.13 | 79 | |
| 20260507012428 | 11 | 46 | 3.2 | 8.0 | 0.00 | 0.13 | 0.13 | 79 | |
| 20260507011928 | 11 | 317 | 1.6 | 8.0 | 0.00 | 0.13 | 0.13 | 79 | |
| 20260507011428 | 11 | 265 | 0.0 | 3.2 | 0.00 | 0.13 | 0.13 | 79 | |
| 20260507010928 | 11 | 213 | 0.0 | 4.8 | 0.00 | 0.13 | 0.13 | 79 | |
| 20260507010428 | 11 | 278 | 0.0 | 4.8 | 0.00 | 0.13 | 0.13 | 79 | |
| 20260507005928 | 11 | 230 | 0.0 | 6.4 | 0.00 | 0.13 | 0.13 | 79 | |
| 20260507005428 | 11 | 265 | 0.0 | 9.7 | 0.00 | 0.13 | 0.13 | 79 | |
| 20260507004928 | 11 | 305 | 1.6 | 4.8 | 0.00 | 0.13 | 0.13 | 79 | |
| 20260507004428 | 11 | 267 | 1.6 | 3.2 | 0.00 | 0.13 | 0.13 | 79 | |
| 20260507003928 | 11 | 264 | 3.2 | 12.9 | 0.00 | 0.13 | 0.13 | 80 | |
| 20260507003428 | 11 | 261 | 11.3 | 11.3 | 0.00 | 0.13 | 0.13 | 80 | |
| 20260507002928 | 11 | 329 | 0.0 | 6.4 | 0.00 | 0.13 | 0.13 | 80 | |
| 20260507002428 | 11 | 230 | 0.0 | 8.0 | 0.00 | 0.13 | 0.13 | 80 | |
| 20260507001928 | 11 | 355 | 0.0 | 6.4 | 0.00 | 0.13 | 0.13 | 80 | |
| 20260507001428 | 11 | 343 | 4.8 | 4.8 | 0.00 | 0.13 | 0.13 | 80 | |
| 20260507000928 | 11 | 28 | 0.0 | 4.8 | 0.00 | 0.13 | 0.13 | 80 | |
| 20260507000428 | 11 | 33 | 3.2 | 3.2 | 0.00 | 0.13 | 0.13 | 80 | |
| 20260506235928 | 11 | 292 | 0.0 | 8.0 | 0.00 | 0.13 | 0.13 | 80 | |
| 20260506235428 | 11 | 274 | 0.0 | 6.4 | 0.00 | 0.13 | 0.13 | 80 | |
| 20260506234928 | 11 | 1 | 0.0 | 4.8 | 0.00 | 0.13 | 0.13 | 80 | |
| 20260506234428 | 11 | 282 | 1.6 | 14.5 | 0.00 | 0.13 | 0.13 | 80 | |
| 20260506233928 | 11 | 343 | 1.6 | 6.4 | 0.00 | 0.13 | 0.13 | 79 | |
| 20260506233428 | 11 | 246 | 4.8 | 4.8 | 0.00 | 0.13 | 0.13 | 79 | |
| 20260506232928 | 11 | 282 | 0.0 | 8.0 | 0.00 | 0.13 | 0.13 | 79 | |
| 20260506232428 | 11 | 320 | 3.2 | 14.5 | 0.00 | 0.13 | 0.13 | 79 | |
| 20260506231928 | 11 | 299 | 1.6 | 9.7 | 0.00 | 0.13 | 0.13 | 79 | |
| 20260506231428 | 11 | 350 | 1.6 | 9.7 | 0.00 | 0.13 | 0.13 | 79 | |
| 20260506230928 | 11 | 293 | 1.6 | 9.7 | 0.00 | 0.13 | 0.13 | 79 | |
| 20260506230428 | 11 | 123 | 0.0 | 12.9 | 0.00 | 0.13 | 0.13 | 79 | |
| 20260506225928 | 11 | 19 | 1.6 | 4.8 | 0.00 | 0.13 | 0.13 | 79 | |
| 20260506225428 | 11 | 323 | 0.0 | 6.4 | 0.00 | 0.13 | 0.13 | 79 | |
| 20260506224928 | 11 | 246 | 0.0 | 9.7 | 0.00 | 0.13 | 0.13 | 79 | |
| 20260506224428 | 11 | 323 | 1.6 | 8.0 | 0.00 | 0.13 | 0.13 | 79 | |
| 20260506223928 | 11 | 236 | 3.2 | 12.9 | 0.00 | 0.13 | 0.13 | 78 | |
| 20260506223428 | 11 | 305 | 0.0 | 0.0 | 0.00 | 0.13 | 0.13 | 79 | |
| 20260506222928 | 11 | 305 | 0.0 | 14.5 | 0.00 | 0.13 | 0.13 | 79 | |
| 20260506222428 | 12 | 299 | 3.2 | 12.9 | 0.00 | 0.13 | 0.13 | 79 | |
| 20260506221928 | 12 | 322 | 0.0 | 6.4 | 0.00 | 0.13 | 0.13 | 79 | |
| 20260506221428 | 12 | 331 | 1.6 | 9.7 | 0.00 | 0.13 | 0.13 | 79 | |
| 20260506220928 | 12 | 313 | 1.6 | 3.2 | 0.00 | 0.23 | 0.13 | 79 | |
| 20260506220428 | 12 | 268 | 0.0 | 4.8 | 0.00 | 0.23 | 0.13 | 79 | |
| 20260506215928 | 12 | 355 | 1.6 | 8.0 | 0.00 | 0.23 | 0.13 | 79 | |
| 20260506215428 | 12 | 316 | 1.6 | 4.8 | 0.00 | 0.23 | 0.13 | 79 | |
| 20260506214928 | 12 | 317 | 3.2 | 4.8 | 0.00 | 0.23 | 0.13 | 79 | |
| 20260506214428 | 12 | 239 | 0.0 | 11.3 | 0.00 | 0.23 | 0.13 | 79 | |
| 20260506213928 | 12 | 184 | 3.2 | 9.7 | 0.00 | 0.23 | 0.13 | 78 | |
| 20260506213428 | 12 | 305 | 0.0 | 3.2 | 0.00 | 0.23 | 0.13 | 78 | |
| 20260506212928 | 12 | 316 | 1.6 | 3.2 | 0.00 | 0.23 | 0.13 | 78 | |
| 20260506212428 | 12 | 261 | 0.0 | 9.7 | 0.00 | 0.23 | 0.13 | 78 | |
| 20260506211928 | 12 | 323 | 0.0 | 11.3 | 0.00 | 0.23 | 0.13 | 78 | |
| 20260506211428 | 12 | 229 | 0.0 | 4.8 | 0.00 | 0.23 | 0.13 | 78 | |
| 20260506210928 | 12 | 310 | 1.6 | 9.7 | 0.00 | 0.25 | 0.13 | 78 | |
| 20260506210428 | 12 | 18 | 0.0 | 4.8 | 0.00 | 0.25 | 0.13 | 78 | |
| 20260506205928 | 12 | 99 | 0.0 | 3.2 | 0.00 | 0.25 | 0.13 | 78 | |
| 20260506205428 | 12 | 9 | 1.6 | 4.8 | 0.00 | 0.25 | 0.13 | 78 | |
| 20260506204928 | 12 | 330 | 1.6 | 6.4 | 0.00 | 0.25 | 0.13 | 78 | |
| 20260506204428 | 12 | 354 | 0.0 | 4.8 | 0.00 | 0.25 | 0.13 | 78 | |
| 20260506203928 | 12 | 265 | 0.0 | 0.0 | 0.00 | 0.25 | 0.13 | 79 | |
| 20260506203428 | 12 | 265 | 0.0 | 9.7 | 0.00 | 0.25 | 0.13 | 78 | |
| 20260506202928 | 12 | 275 | 4.8 | 8.0 | 0.00 | 0.25 | 0.13 | 78 | |
| 20260506202428 | 12 | 288 | 0.0 | 3.2 | 0.00 | 0.25 | 0.13 | 78 | |
| 20260506201928 | 12 | 315 | 0.0 | 6.4 | 0.00 | 0.25 | 0.13 | 78 | |
| 20260506201428 | 12 | 330 | 1.6 | 6.4 | 0.00 | 0.25 | 0.13 | 78 | |
| 20260506200928 | 13 | 216 | 1.6 | 3.2 | 0.00 | 0.25 | 0.13 | 78 | |
| 20260506200428 | 12 | 268 | 0.0 | 11.3 | 0.00 | 0.25 | 0.13 | 78 | |
| 20260506195928 | 13 | 268 | 0.0 | 1.6 | 0.00 | 0.25 | 0.13 | 77 | |
| 20260506195428 | 13 | 282 | 0.0 | 4.8 | 0.00 | 0.25 | 0.13 | 77 | |
| 20260506194928 | 13 | 357 | 0.0 | 3.2 | 0.00 | 0.25 | 0.13 | 77 | |
| 20260506194428 | 13 | 286 | 0.0 | 3.2 | 0.00 | 0.25 | 0.13 | 77 | |
| 20260506193928 | 13 | 303 | 0.0 | 3.2 | 0.00 | 0.25 | 0.13 | 77 | |
| 20260506193428 | 13 | 11 | 0.0 | 4.8 | 0.00 | 0.25 | 0.13 | 77 | |
| 20260506192928 | 13 | 330 | 1.6 | 8.0 | 0.00 | 0.25 | 0.13 | 77 | |
| 20260506192428 | 13 | 135 | 0.0 | 3.2 | 0.00 | 0.25 | 0.13 | 77 | |
| 20260506191928 | 13 | 285 | 0.0 | 4.8 | 0.00 | 0.25 | 0.13 | 77 | |
| 20260506191428 | 13 | 357 | 0.0 | 0.0 | 0.00 | 0.25 | 0.13 | 77 | |
| 20260506190928 | 13 | 357 | 0.0 | 0.0 | 0.00 | 0.25 | 0.13 | 77 | |
| 20260506190428 | 13 | 357 | 0.0 | 0.0 | 0.00 | 0.25 | 0.13 | 77 | |
| 20260506185928 | 13 | 357 | 0.0 | 4.8 | 0.00 | 0.25 | 0.13 | 77 | |
| 20260506185428 | 13 | 338 | 0.0 | 6.4 | 0.00 | 0.25 | 0.13 | 77 | |
| 20260506184928 | 13 | 30 | 0.0 | 8.0 | 0.00 | 0.25 | 0.13 | 77 | |
| 20260506184428 | 13 | 109 | 0.0 | 6.4 | 0.03 | 0.25 | 0.13 | 77 | |
| 20260506183928 | 13 | 341 | 1.6 | 8.0 | 0.03 | 0.25 | 0.13 | 77 | |
| 20260506183429 | 14 | 32 | 0.0 | 6.4 | 0.03 | 0.25 | 0.13 | 77 | |
| 20260506182928 | 14 | 98 | 1.6 | 6.4 | 0.03 | 0.25 | 0.13 | 77 | |
| 20260506182428 | 14 | 68 | 3.2 | 6.4 | 0.03 | 0.25 | 0.13 | 77 | |
| 20260506181928 | 14 | 5 | 1.6 | 4.8 | 0.03 | 0.25 | 0.13 | 77 | |
| 20260506181429 | 14 | 350 | 3.2 | 6.4 | 0.03 | 0.25 | 0.13 | 77 | |
| 20260506180929 | 14 | 12 | 0.0 | 8.0 | 0.03 | 0.25 | 0.13 | 77 | |
| 20260506180429 | 14 | 185 | 0.0 | 11.3 | 0.03 | 0.25 | 0.13 | 77 | |
| 20260506175929 | 15 | 21 | 0.0 | 8.0 | 0.03 | 0.25 | 0.13 | 77 | |
| 20260506175429 | 15 | 167 | 3.2 | 9.7 | 0.03 | 0.25 | 0.13 | 77 | |
| 20260506174929 | 15 | 343 | 1.6 | 8.0 | 0.05 | 0.25 | 0.13 | 77 | |
| 20260506174429 | 15 | 289 | 4.8 | 9.7 | 0.03 | 0.23 | 0.10 | 76 | |
| 20260506173929 | 15 | 331 | 3.2 | 9.7 | 0.03 | 0.23 | 0.10 | 76 | |
| 20260506173429 | 15 | 12 | 4.8 | 8.0 | 0.03 | 0.23 | 0.10 | 76 | |
| 20260506172929 | 15 | 347 | 0.0 | 6.4 | 0.05 | 0.23 | 0.10 | 76 | |
| 20260506172429 | 15 | 330 | 4.8 | 8.0 | 0.05 | 0.23 | 0.10 | 76 | |
| 20260506171929 | 15 | 344 | 3.2 | 11.3 | 0.05 | 0.23 | 0.10 | 76 | |
| 20260506171429 | 15 | 329 | 1.6 | 8.0 | 0.08 | 0.23 | 0.10 | 76 | |
| 20260506170929 | 15 | 14 | 1.6 | 9.7 | 0.08 | 0.23 | 0.10 | 75 | |
| 20260506170429 | 16 | 292 | 0.0 | 6.4 | 0.10 | 0.23 | 0.10 | 75 | |
| 20260506165929 | 16 | 5 | 3.2 | 8.0 | 0.10 | 0.23 | 0.10 | 75 | |
| 20260506165429 | 16 | 336 | 1.6 | 8.0 | 0.10 | 0.23 | 0.10 | 75 | |
| 20260506164929 | 16 | 39 | 1.6 | 9.7 | 0.08 | 0.20 | 0.08 | 75 | |
| 20260506164429 | 16 | 67 | 1.6 | 9.7 | 0.08 | 0.20 | 0.08 | 75 | |
| 20260506163929 | 16 | 340 | 4.8 | 11.3 | 0.08 | 0.20 | 0.08 | 75 | |
| 20260506163429 | 16 | 279 | 6.4 | 8.0 | 0.08 | 0.20 | 0.08 | 75 | |
| 20260506162929 | 16 | 289 | 0.0 | 9.7 | 0.05 | 0.18 | 0.05 | 75 | |
| 20260506162429 | 16 | 8 | 1.6 | 6.4 | 0.05 | 0.18 | 0.05 | 74 | |
| 20260506161929 | 17 | 26 | 0.0 | 6.4 | 0.05 | 0.18 | 0.05 | 74 | |
| 20260506161429 | 17 | 18 | 3.2 | 8.0 | 0.03 | 0.15 | 0.03 | 72 | |
| 20260506160929 | 17 | 323 | 1.6 | 6.4 | 0.03 | 0.18 | 0.03 | 70 | |
| 20260506160429 | 17 | 246 | 0.0 | 8.0 | 0.00 | 0.15 | 0.00 | 69 | |
| 20260506155929 | 17 | 334 | 0.0 | 4.8 | 0.00 | 0.15 | 0.00 | 69 | |
| 20260506155429 | 17 | 348 | 3.2 | 4.8 | 0.00 | 0.15 | 0.00 | 69 | |
| 20260506154929 | 17 | 270 | 4.8 | 4.8 | 0.00 | 0.15 | 0.00 | 69 | |
| 20260506154429 | 17 | 358 | 3.2 | 8.0 | 0.00 | 0.15 | 0.00 | 68 | |
| 20260506153929 | 18 | 312 | 1.6 | 8.0 | 0.00 | 0.15 | 0.00 | 68 | |
| 20260506153429 | 18 | 5 | 3.2 | 8.0 | 0.00 | 0.15 | 0.00 | 67 | |
| 20260506152929 | 18 | 0 | 1.6 | 8.0 | 0.00 | 0.15 | 0.00 | 67 | |
| 20260506152429 | 18 | 333 | 3.2 | 9.7 | 0.00 | 0.15 | 0.00 | 66 | |
| 20260506151929 | 18 | 295 | 0.0 | 11.3 | 0.00 | 0.15 | 0.18 | 65 | |
| 20260506151429 | 18 | 298 | 1.6 | 9.7 | 0.00 | 0.15 | 0.18 | 63 | |
| 20260506150929 | 18 | 327 | 6.4 | 12.9 | 0.00 | 0.18 | 0.18 | 63 | |
| 20260506150429 | 18 | 278 | 3.2 | 8.0 | 0.00 | 0.18 | 0.18 | 62 | |
| 20260506145929 | 18 | 310 | 3.2 | 12.9 | 0.00 | 0.18 | 0.18 | 62 | |
| 20260506145429 | 18 | 291 | 4.8 | 14.5 | 0.00 | 0.18 | 0.18 | 61 | |
| 20260506144929 | 18 | 11 | 1.6 | 9.7 | 0.00 | 0.18 | 0.18 | 61 | |
| 20260506144429 | 19 | 191 | 1.6 | 14.5 | 0.00 | 0.18 | 0.18 | 60 | |
| 20260506143929 | 19 | 268 | 3.2 | 12.9 | 0.00 | 0.18 | 0.18 | 59 | |
| 20260506143429 | 19 | 182 | 1.6 | 14.5 | 0.00 | 0.18 | 0.18 | 57 | |
| 20260506142929 | 20 | 194 | 1.6 | 12.9 | 0.00 | 0.18 | 0.18 | 56 | |
| 20260506142429 | 20 | 291 | 3.2 | 12.9 | 0.00 | 0.18 | 0.18 | 56 | |
| 20260506141929 | 20 | 296 | 3.2 | 8.0 | 0.00 | 0.18 | 0.18 | 54 | |
| 20260506141429 | 20 | 234 | 0.0 | 4.8 | 0.00 | 0.18 | 0.18 | 54 | |
| 20260506140929 | 20 | 181 | 0.0 | 6.4 | 0.00 | 0.20 | 0.18 | 53 | |
| 20260506140429 | 20 | 267 | 4.8 | 8.0 | 0.00 | 0.20 | 0.18 | 53 | |
| 20260506135929 | 20 | 265 | 1.6 | 11.3 | 0.00 | 0.20 | 0.18 | 52 | |
| 20260506135429 | 20 | 25 | 0.0 | 3.2 | 0.00 | 0.20 | 0.18 | 53 | |
| 20260506134929 | 20 | 230 | 1.6 | 8.0 | 0.00 | 0.20 | 0.18 | 51 | |
| 20260506134429 | 21 | 223 | 1.6 | 8.0 | 0.00 | 0.20 | 0.18 | 51 | |
| 20260506133929 | 21 | 222 | 4.8 | 11.3 | 0.00 | 0.20 | 0.18 | 51 | |
| 20260506133429 | 21 | 181 | 1.6 | 4.8 | 0.00 | 0.20 | 0.18 | 52 | |
| 20260506132929 | 20 | 255 | 4.8 | 6.4 | 0.00 | 0.20 | 0.18 | 52 | |
| 20260506132429 | 20 | 233 | 1.6 | 11.3 | 0.00 | 0.20 | 0.18 | 51 | |
| 20260506131929 | 21 | 261 | 4.8 | 11.3 | 0.00 | 0.20 | 0.18 | 50 | |
| 20260506131429 | 21 | 243 | 0.0 | 12.9 | 0.00 | 0.20 | 0.18 | 51 | |
| 20260506130929 | 21 | 70 | 1.6 | 12.9 | 0.00 | 0.20 | 0.18 | 51 | |
| 20260506130429 | 21 | 251 | 3.2 | 11.3 | 0.00 | 0.20 | 0.18 | 52 | |
| 20260506125929 | 21 | 105 | 0.0 | 8.0 | 0.00 | 0.20 | 0.18 | 52 | |
| 20260506125429 | 21 | 267 | 1.6 | 9.7 | 0.00 | 0.20 | 0.18 | 51 | |
| 20260506124929 | 21 | 258 | 0.0 | 8.0 | 0.00 | 0.20 | 0.18 | 51 | |
| 20260506124429 | 21 | 233 | 1.6 | 6.4 | 0.00 | 0.20 | 0.18 | 50 | |
| 20260506123929 | 21 | 278 | 0.0 | 4.8 | 0.00 | 0.20 | 0.18 | 51 | |
| 20260506123429 | 21 | 215 | 1.6 | 9.7 | 0.00 | 0.20 | 0.18 | 51 | |
| 20260506122929 | 21 | 219 | 0.0 | 8.0 | 0.00 | 0.20 | 0.18 | 51 | |
| 20260506122429 | 21 | 309 | 3.2 | 11.3 | 0.00 | 0.20 | 0.18 | 51 | |
| 20260506121929 | 21 | 181 | 3.2 | 6.4 | 0.00 | 0.20 | 0.18 | 52 | |
| 20260506121429 | 21 | 216 | 0.0 | 9.7 | 0.00 | 0.20 | 0.18 | 50 | |
| 20260506120929 | 21 | 187 | 0.0 | 11.3 | 0.00 | 0.20 | 0.18 | 50 | |
| 20260506120429 | 21 | 143 | 1.6 | 9.7 | 0.00 | 0.20 | 0.18 | 50 | |
| 20260506115929 | 21 | 260 | 1.6 | 9.7 | 0.00 | 0.20 | 0.18 | 49 | |
| 20260506115429 | 22 | 180 | 1.6 | 12.9 | 0.00 | 0.20 | 0.18 | 49 | |
| 20260506114929 | 22 | 220 | 1.6 | 8.0 | 0.00 | 0.20 | 0.18 | 50 | |
| 20260506114429 | 21 | 229 | 0.0 | 8.0 | 0.00 | 0.20 | 0.18 | 50 | |
| 20260506113929 | 21 | 199 | 4.8 | 9.7 | 0.00 | 0.20 | 0.18 | 50 | |
| 20260506113429 | 21 | 85 | 1.6 | 12.9 | 0.00 | 0.20 | 0.18 | 50 | |
| 20260506112929 | 21 | 267 | 0.0 | 12.9 | 0.00 | 0.20 | 0.18 | 49 | |
| 20260506112429 | 21 | 177 | 3.2 | 11.3 | 0.00 | 0.20 | 0.18 | 50 | |
| 20260506111929 | 21 | 255 | 1.6 | 9.7 | 0.00 | 0.20 | 0.18 | 49 | |
| 20260506111429 | 21 | 225 | 4.8 | 9.7 | 0.00 | 0.20 | 0.18 | 51 | |
| 20260506110929 | 21 | 232 | 0.0 | 14.5 | 0.00 | 0.20 | 0.18 | 51 | |
| 20260506110429 | 21 | 215 | 4.8 | 9.7 | 0.00 | 0.20 | 0.18 | 51 | |
| 20260506105929 | 21 | 277 | 3.2 | 9.7 | 0.00 | 0.20 | 0.18 | 51 | |
| 20260506105429 | 21 | 284 | 3.2 | 11.3 | 0.00 | 0.20 | 0.18 | 53 | |
| 20260506104929 | 21 | 244 | 0.0 | 9.7 | 0.00 | 0.20 | 0.18 | 52 | |
| 20260506104429 | 21 | 298 | 8.0 | 12.9 | 0.00 | 0.20 | 0.18 | 51 | |
| 20260506103930 | 21 | 310 | 3.2 | 11.3 | 0.00 | 0.20 | 0.18 | 52 | |
| 20260506103429 | 21 | 234 | 4.8 | 11.3 | 0.00 | 0.20 | 0.18 | 54 | |
| 20260506102929 | 20 | 149 | 1.6 | 11.3 | 0.00 | 0.20 | 0.18 | 53 | |
| 20260506102429 | 21 | 322 | 0.0 | 8.0 | 0.00 | 0.20 | 0.18 | 52 | |
| 20260506101929 | 21 | 230 | 4.8 | 12.9 | 0.00 | 0.20 | 0.18 | 52 | |
| 20260506101429 | 21 | 230 | 1.6 | 6.4 | 0.00 | 0.20 | 0.18 | 52 | |
| 20260506100929 | 21 | 137 | 4.8 | 14.5 | 0.00 | 0.20 | 0.18 | 52 | |
| 20260506100429 | 21 | 198 | 1.6 | 11.3 | 0.00 | 0.20 | 0.18 | 52 | |
| 20260506095929 | 21 | 324 | 1.6 | 6.4 | 0.00 | 0.20 | 0.18 | 52 | |
| 20260506095429 | 21 | 113 | 3.2 | 14.5 | 0.00 | 0.20 | 0.18 | 53 | |
| 20260506094930 | 21 | 177 | 4.8 | 12.9 | 0.00 | 0.20 | 0.18 | 53 | |
| 20260506094429 | 21 | 258 | 1.6 | 12.9 | 0.00 | 0.20 | 0.18 | 56 | |
| 20260506093929 | 20 | 279 | 1.6 | 6.4 | 0.00 | 0.20 | 0.18 | 57 | |
| 20260506093429 | 20 | 158 | 3.2 | 9.7 | 0.00 | 0.20 | 0.18 | 58 | |
| 20260506092930 | 19 | 208 | 3.2 | 11.3 | 0.00 | 0.20 | 0.18 | 58 | |
| 20260506092430 | 18 | 181 | 3.2 | 9.7 | 0.00 | 0.20 | 0.18 | 60 | |
| 20260506091930 | 18 | 202 | 1.6 | 9.7 | 0.00 | 0.20 | 0.18 | 60 | |
| 20260506091430 | 18 | 248 | 0.0 | 8.0 | 0.00 | 0.20 | 0.18 | 60 |